TimeCDT,TemperatureF,Dew PointF,Humidity,Sea Level PressureIn,VisibilityMPH,Wind Direction,Wind SpeedMPH,Gust SpeedMPH,PrecipitationIn,Events,Conditions,WindDirDegrees,DateUTC
12:55 AM,67.3,55.0,65,29.99,10.0,NNE,18.4,25.3,N/A,,Clear,30,2012-09-18 05:55:00
1:55 AM,65.7,54.9,68,29.99,10.0,NNE,20.7,-,N/A,,Clear,20,2012-09-18 06:55:00
2:55 AM,64.0,54.9,72,30.01,10.0,North,17.3,-,N/A,,Clear,10,2012-09-18 07:55:00
3:55 AM,62.1,53.1,72,30.00,10.0,NNE,24.2,27.6,N/A,,Scattered Clouds,20,2012-09-18 08:55:00
4:55 AM,60.6,50.9,70,30.01,10.0,North,15.0,-,N/A,,Partly Cloudy,10,2012-09-18 09:55:00
5:55 AM,60.1,48.7,66,30.05,10.0,North,12.7,-,N/A,,Clear,360,2012-09-18 10:55:00
6:55 AM,59.0,45.3,60,30.08,10.0,NNE,8.1,-,N/A,,Clear,20,2012-09-18 11:55:00
7:55 AM,55.8,44.8,67,30.11,10.0,NNE,8.1,-,N/A,,Clear,20,2012-09-18 12:55:00
8:55 AM,61.0,44.1,54,30.12,10.0,NNE,10.4,-,N/A,,Clear,20,2012-09-18 13:55:00
9:55 AM,64.8,43.2,45,30.14,7.0,NNE,13.8,-,N/A,,Clear,30,2012-09-18 14:55:00
10:55 AM,69.3,40.3,35,30.15,10.0,NE,10.4,-,N/A,,Clear,50,2012-09-18 15:55:00
11:55 AM,72.7,39.0,29,30.14,10.0,NE,12.7,19.6,N/A,,Clear,50,2012-09-18 16:55:00
12:55 PM,75.6,39.0,27,30.14,10.0,East,9.2,-,N/A,,Clear,100,2012-09-18 17:55:00
1:55 PM,77.2,38.3,25,30.11,10.0,Variable,4.6,-,N/A,,Clear,0,2012-09-18 18:55:00
2:55 PM,79.3,36.5,21,30.09,10.0,Variable,3.5,-,N/A,,Clear,0,2012-09-18 19:55:00
3:55 PM,81.5,34.5,18,30.06,10.0,ENE,4.6,-,N/A,,Clear,60,2012-09-18 20:55:00
4:55 PM,81.9,35.8,19,30.04,10.0,Calm,Calm,-,N/A,,Clear,0,2012-09-18 21:55:00
5:55 PM,81.0,35.4,19,30.03,10.0,Calm,Calm,-,N/A,,Clear,0,2012-09-18 22:55:00
6:55 PM,80.1,36.1,21,30.03,10.0,SE,6.9,-,N/A,,Clear,140,2012-09-18 23:55:00
7:55 PM,72.7,38.1,28,30.04,10.0,South,8.1,-,N/A,,Clear,180,2012-09-19 00:55:00
8:55 PM,69.3,37.6,31,30.05,10.0,South,10.4,-,N/A,,Clear,190,2012-09-19 01:55:00
9:55 PM,61.9,37.6,41,30.07,10.0,SSE,6.9,-,N/A,,Clear,150,2012-09-19 02:55:00
10:55 PM,61.0,39.0,44,30.06,10.0,South,10.4,-,N/A,,Clear,180,2012-09-19 03:55:00
11:55 PM,58.6,39.2,48,30.06,10.0,South,8.1,-,N/A,,Clear,170,2012-09-19 04:55:00